Weather History for KDMA - March, 2013

Nearest airport to NA, NA.

See history from more local stations
Change the Weather History Date:

Thursday, March 21, 2013

  Actual Average Record
Temperature  
Mean Temperature 65 °F -  
Max Temperature 76 °F 75 °F 89 °F (1988)
Min Temperature 54 °F 46 °F 33 °F (1955)
Growing Degree Days 15 (Base 50)    
Moisture  
Dew Point 30 °F    
Average Humidity 26    
Maximum Humidity 37    
Minimum Humidity 19    
Precipitation  
Precipitation 0.00 in - - ()
Sea Level Pressure  
Sea Level Pressure 29.74 in    
Wind  
Wind Speed 6 mph (South)    
Max Wind Speed 10 mph    
Max Gust Speed -    
Visibility 10 miles    
Events      
Averages and records for this station are not official NWS values.
T = Trace of Precipitation, MM = Missing Value Source: NWS Daily Summary

Daily Weather History Graph

Daily Weather History Graph

Search for Another Location

Airport or City:

Trip Planner

Search our weather history database for the weather conditions in past years. The results will help you decide how hot, cold, wet, or windy it might be!

Date:

Astronomy

Mar. 21, 2013 Rise Set
Actual Time 6:25 AM MST 6:36 PM MST
Civil Twilight 6:01 AM MST 7:00 PM MST
Nautical Twilight 5:32 AM MST 7:29 PM MST
Astronomical Twilight 5:03 AM MST 7:57 PM MST
Moon 1:25 PM MST (3/21) 2:32 AM MST (3/21)
Length of Visible Light 12h 59m
Length of Day
12h 10m
Waxing Gibbous, 69% of the Moon is Illuminated
Mar 21
Waxing Gibbous
Mar 27
Full
Apr 2
Last Quarter
Apr 10
New
Apr 18
First Quarter

Hourly Weather History & Observations

Time (MST) Temp. Dew Point Humidity Pressure Visibility Wind Dir Wind Speed Gust Speed Precip Events Conditions
12:58 AM 59.7 °F 28.0 °F 30% 29.79 in 10.0 mi South 6.9 mph - N/A   Clear
1:58 AM 59.2 °F 27.9 °F 30% 29.77 in 10.0 mi SE 6.9 mph - N/A   Partly Cloudy
2:58 AM 58.8 °F 27.3 °F 30% 29.75 in 10.0 mi East 1.2 mph - N/A   Clear
3:58 AM 57.4 °F 28.6 °F 33% 29.85 in 10.0 mi SE 6.9 mph - N/A   Clear
4:58 AM 57.0 °F 28.2 °F 33% 29.84 in 10.0 mi SE 8.1 mph - N/A   Clear
5:58 AM 54.9 °F 28.8 °F 37% 29.76 in 10.0 mi SSE 8.1 mph - N/A   Clear
6:58 AM 55.8 °F 28.6 °F 35% 29.76 in 10.0 mi SE 5.8 mph - N/A   Clear
7:58 AM 59.5 °F 29.5 °F 32% 29.77 in 10.0 mi ENE 1.2 mph - N/A   Clear
8:58 AM 64.6 °F 31.1 °F 29% 29.77 in 10.0 mi ESE 1.2 mph - N/A   Clear
9:58 AM 69.6 °F 30.9 °F 24% 29.76 in 10.0 mi Calm Calm - N/A   Partly Cloudy
10:58 AM 71.2 °F 30.9 °F 23% 29.76 in 10.0 mi Variable 4.6 mph - N/A   Partly Cloudy
11:58 AM 74.7 °F 31.3 °F 20% 29.75 in 10.0 mi NNW 8.1 mph - N/A   Mostly Cloudy
12:58 PM 75.4 °F 30.7 °F 19% 29.73 in 10.0 mi NNW 6.9 mph - N/A   Scattered Clouds
1:58 PM 76.1 °F 31.6 °F 20% 29.71 in 10.0 mi NNW 10.4 mph - N/A   Mostly Cloudy
2:58 PM 75.7 °F 30.0 °F 19% 29.69 in 10.0 mi West 8.1 mph - N/A   Scattered Clouds
3:58 PM 75.7 °F 31.1 °F 19% 29.68 in 10.0 mi NW 10.4 mph - N/A   Mostly Cloudy
4:58 PM 75.6 °F 30.4 °F 19% 29.68 in 10.0 mi NW 10.4 mph - N/A   Clear
5:58 PM 74.1 °F 30.9 °F 20% 29.69 in 10.0 mi NNW 8.1 mph - N/A   Partly Cloudy
6:58 PM 71.6 °F 31.3 °F 23% 29.69 in 10.0 mi NW 3.5 mph - N/A   Clear
7:58 PM 70.3 °F 31.5 °F 24% 29.70 in 10.0 mi West 2.3 mph - N/A   Clear
8:58 PM 68.0 °F 33.3 °F 28% 29.69 in 10.0 mi WSW 2.3 mph - N/A   Clear
9:58 PM 65.8 °F 33.1 °F 30% 29.70 in 10.0 mi SSE 5.8 mph - N/A   Clear
10:58 PM 65.7 °F 30.9 °F 27% 29.69 in 10.0 mi South 5.8 mph - N/A   Clear
11:58 PM 64.2 °F 30.7 °F 29% 29.68 in 10.0 mi SSE 6.9 mph - N/A   Clear